KS4XQ Weather Reports


Display with metric or nautical units.
time (UTC)temp
F
wind
direction
speed
MPH
gust
MPH
rain 1hr
in
rain 24hr
in
rain mn
in
humidity
%
barometer
mb
20260906212407 73 163 1.0 5.0 0.01 0.26 0.26 93 1011.7
20260906212007 72 325 1.0 5.0 0.01 0.26 0.26 93 1011.8
20260906211808 72 34 1.0 5.0 0.01 0.26 0.26 94 1011.7
20260906211607 72 94 1.0 5.0 0.03 0.26 0.26 94 1011.6
20260906211408 72 103 2.0 5.0 0.05 0.26 0.26 93 1011.5
20260906211207 72 152 2.0 6.0 0.07 0.26 0.26 93 1011.6
20260906210807 72 126 2.0 8.0 0.08 0.26 0.26 93 1011.7
20260906210608 72 69 2.0 8.0 0.08 0.26 0.26 94 1011.6
20260906210407 72 111 2.0 8.0 0.09 0.26 0.26 94 1011.6
20260906210209 72 93 2.0 8.0 0.11 0.26 0.26 94 1011.6
20260906210009 72 118 1.0 6.0 0.12 0.26 0.26 94 1011.6
20260906205807 72 110 1.0 6.0 0.13 0.26 0.26 93 1011.6
20260906205607 71 90 2.0 6.0 0.14 0.26 0.26 94 1011.6
20260906205207 71 52 1.0 6.0 0.16 0.26 0.26 94 1011.6
20260906205007 71 64 1.0 6.0 0.17 0.26 0.26 94 1011.7
20260906204807 71 102 1.0 6.0 0.18 0.26 0.26 93 1011.8
20260906204607 71 95 1.0 4.0 0.19 0.26 0.26 94 1011.9
20260906204207 71 61 1.0 5.0 0.21 0.26 0.26 93 1011.8
20260906204006 72 5 1.0 5.0 0.23 0.26 0.26 93 1011.7
20260906203808 72 224 1.0 5.0 0.25 0.26 0.26 93 1011.7
20260906203607 71 215 1.0 5.0 0.26 0.26 0.26 93 1011.6
20260906203407 71 143 1.0 5.0 0.26 0.26 0.26 93 1011.5
20260906203207 71 38 1.0 5.0 0.26 0.26 0.26 93 1011.6
20260906203007 71 84 1.0 4.0 0.26 0.26 0.26 93 1011.6
20260906202808 71 315 1.0 4.0 0.26 0.26 0.26 93 1011.4
20260906202607 71 88 2.0 4.0 0.26 0.26 0.26 93 1011.4
20260906202008 71 128 2.0 4.0 0.25 0.25 0.25 92 1011.4
20260906201806 71 182 1.0 3.0 0.24 0.24 0.24 92 1011.4
20260906201609 71 136 2.0 4.0 0.22 0.22 0.22 90 1011.7
20260906201407 71 136 2.0 4.0 0.20 0.20 0.20 90 1011.9
20260906201210 71 128 2.0 4.0 0.19 0.19 0.19 91 1012.2
20260906200808 71 313 2.0 6.0 0.18 0.18 0.18 89 1012.3
20260906200607 71 229 2.0 6.0 0.18 0.18 0.18 89 1012.2
20260906200408 72 232 2.0 6.0 0.16 0.16 0.16 89 1011.9
20260906200207 72 74 2.0 5.0 0.15 0.15 0.15 90 1012.0
20260906200010 72 74 2.0 5.0 0.14 0.14 0.14 90 1012.1
20260906195806 72 28 2.0 9.0 0.13 0.33 0.13 90 1012.1
20260906195607 72 15 3.0 10.0 0.11 0.31 0.11 87 1012.3
20260906195409 73 106 3.0 10.0 0.10 0.30 0.10 86 1012.6
20260906195207 74 53 4.0 10.0 0.09 0.29 0.09 85 1012.7
20260906195005 74 96 4.0 18.0 0.08 0.28 0.08 83 1012.7
20260906194807 75 49 4.0 18.0 0.07 0.27 0.07 82 1012.6
20260906194607 76 342 4.0 18.0 0.06 0.26 0.06 81 1012.6
20260906194407 76 113 4.0 18.0 0.05 0.25 0.05 78 1012.4
20260906193806 78 247 5.0 21.0 0.00 0.20 0.00 76 1012.0
20260906193006 84 168 5.0 20.0 0.00 0.20 0.00 62 1012.1
20260906192818 85 215 5.0 20.0 0.00 0.20 0.00 61 1012.4
20260906192206 94 22 3.0 15.0 0.00 0.20 0.00 51 1011.9
20260906192006 95 44 3.0 15.0 0.00 0.20 0.00 52 1012.6
20260906191806 96 112 2.0 14.0 0.00 0.20 0.00 57 1012.2
20260906191406 96 153 2.0 9.0 0.00 0.20 0.00 54 1011.0
20260906191206 96 186 3.0 9.0 0.00 0.20 0.00 58 1010.6
20260906191006 96 188 3.0 9.0 0.00 0.20 0.00 57 1010.4
20260906190805 96 154 3.0 9.0 0.00 0.20 0.00 55 1010.5
20260906190607 96 209 2.0 9.0 0.00 0.20 0.00 55 1010.6
20260906190407 96 204 2.0 6.0 0.00 0.20 0.00 52 1010.7
20260906190207 97 290 2.0 6.0 0.00 0.20 0.00 54 1010.9
20260906185605 97 217 2.0 6.0 0.00 0.40 0.00 55 1010.8
20260906185407 97 142 2.0 6.0 0.00 0.40 0.00 56 1010.7
20260906185205 97 175 2.0 6.0 0.00 0.40 0.00 55 1010.7
20260906185009 97 199 2.0 6.0 0.00 0.40 0.00 55 1010.6
20260906184806 97 254 2.0 5.0 0.00 0.40 0.00 55 1010.7
20260906184607 97 184 2.0 4.0 0.00 0.40 0.00 56 1010.7
20260906184005 96 217 2.0 5.0 0.00 0.40 0.00 57 1011.0
20260906183807 96 281 2.0 5.0 0.00 0.40 0.00 53 1011.1
20260906183605 96 176 1.0 5.0 0.00 0.40 0.00 55 1011.1
20260906183407 96 192 1.0 6.0 0.00 0.40 0.00 55 1011.2
20260906183205 96 177 1.0 5.0 0.00 0.40 0.00 52 1011.3
20260906182806 95 207 1.0 5.0 0.00 0.40 0.00 56 1011.3
20260906182007 95 271 1.0 4.0 0.00 0.40 0.00 55 1011.4
20260906181809 95 240 1.0 4.0 0.00 0.40 0.00 54 1011.4
20260906181407 95 303 1.0 5.0 0.00 0.40 0.00 56 1011.4
20260906181207 95 24 2.0 5.0 0.00 0.40 0.00 56 1011.4
20260906180806 95 201 2.0 5.0 0.00 0.40 0.00 60 1011.4
20260906180608 95 302 2.0 5.0 0.00 0.40 0.00 54 1011.5
20260906180208 96 192 2.0 4.0 0.00 0.40 0.00 59 1011.5
20260906180008 96 231 2.0 4.0 0.00 0.40 0.00 55 1011.6
20260906175806 96 247 2.0 5.0 0.00 0.40 0.00 57 1011.5
20260906175606 96 217 2.0 5.0 0.00 0.40 0.00 59 1011.6
20260906175405 96 179 2.0 6.0 0.00 0.40 0.00 58 1011.6
20260906174606 95 172 1.0 4.0 0.00 0.40 0.00 57 1011.8
20260906174406 95 186 1.0 4.0 0.00 0.40 0.00 61 1011.8
20260906174206 95 200 1.0 4.0 0.00 0.40 0.00 59 1011.8
20260906174009 95 222 1.0 4.0 0.00 0.40 0.00 61 1011.8
20260906173806 95 219 2.0 4.0 0.00 0.40 0.00 60 1011.8
20260906173406 94 217 2.0 5.0 0.00 0.40 0.00 62 1011.8
20260906173207 94 228 2.0 5.0 0.00 0.40 0.00 64 1011.9
20260906172808 94 192 1.0 5.0 0.00 0.40 0.00 66 1011.9
20260906172606 93 213 1.0 3.0 0.00 0.40 0.00 65 1012.0
20260906172409 93 210 1.0 6.0 0.00 0.40 0.00 63 1012.0
20260906172206 93 134 1.0 6.0 0.00 0.40 0.00 64 1012.0
20260906172009 93 134 1.0 6.0 0.00 0.40 0.00 62 1012.1
20260906171806 93 287 2.0 6.0 0.00 0.40 0.00 62 1012.1
20260906171606 93 271 1.0 4.0 0.00 0.40 0.00 61 1012.1
20260906171408 92 281 1.0 4.0 0.00 0.40 0.00 65 1012.1
20260906171206 92 267 1.0 4.0 0.00 0.40 0.00 63 1012.1
20260906171008 92 296 2.0 4.0 0.00 0.40 0.00 64 1012.2
20260906170806 92 225 2.0 4.0 0.00 0.40 0.00 64 1012.2
20260906170606 91 158 2.0 4.0 0.00 0.40 0.00 65 1012.4
20260906170407 91 259 2.0 4.0 0.00 0.40 0.00 62 1012.3
20260906170013 91 319 1.0 4.0 0.00 0.40 0.00 66 1012.4
20260906165806 91 267 1.0 4.0 0.00 0.40 0.00 64 1012.4
20260906165407 91 245 1.0 3.0 0.00 0.40 0.00 67 1012.4
20260906165206 91 348 1.0 3.0 0.00 0.40 0.00 68 1012.4
20260906165008 91 355 1.0 3.0 0.00 0.40 0.00 64 1012.5
20260906164806 91 355 1.0 3.0 0.00 0.40 0.00 64 1012.5
20260906164206 91 272 1.0 3.0 0.00 0.40 0.00 69 1012.6
20260906163806 91 207 1.0 3.0 0.00 0.40 0.00 65 1012.7
20260906163606 90 219 0.0 3.0 0.00 0.40 0.00 68 1012.8
20260906163407 90 205 0.0 3.0 0.00 0.40 0.00 70 1012.8
20260906163206 90 182 0.0 2.0 0.00 0.40 0.00 68 1012.8
20260906163008 90 182 1.0 2.0 0.00 0.40 0.00 69 1012.8
20260906162806 90 87 1.0 3.0 0.00 0.40 0.00 70 1012.8
20260906162606 89 87 1.0 3.0 0.00 0.40 0.00 69 1012.8
20260906162409 89 161 1.0 3.0 0.00 0.40 0.00 69 1012.8
20260906162206 89 217 1.0 3.0 0.00 0.40 0.00 66 1012.9
20260906162010 89 206 1.0 3.0 0.00 0.40 0.00 74 1012.9
20260906161806 89 217 1.0 3.0 0.00 0.40 0.00 72 1012.9
20260906161606 89 215 1.0 3.0 0.00 0.40 0.00 69 1012.9
20260906161406 88 316 1.0 3.0 0.00 0.40 0.00 70 1012.9
20260906161206 88 316 1.0 3.0 0.00 0.40 0.00 72 1012.9
20260906161009 88 292 1.0 3.0 0.00 0.40 0.00 74 1012.9
20260906160806 88 64 1.0 3.0 0.00 0.40 0.00 73 1013.0
20260906160606 87 101 1.0 3.0 0.00 0.40 0.00 70 1013.0
20260906160406 87 78 1.0 3.0 0.00 0.40 0.00 70 1012.9
20260906160206 87 49 0.0 2.0 0.00 0.40 0.00 79 1013.0
20260906160011 87 202 0.0 2.0 0.00 0.40 0.00 77 1013.0
20260906155806 87 202 0.0 2.0 0.00 0.40 0.00 74 1012.9
20260906155606 86 202 1.0 3.0 0.00 0.40 0.00 78 1013.0
20260906155206 86 200 1.0 4.0 0.00 0.40 0.00 77 1013.0
20260906155009 85 205 1.0 4.0 0.00 0.40 0.00 79 1013.1
20260906154806 85 267 2.0 4.0 0.00 0.40 0.00 78 1013.1
20260906154606 85 279 1.0 4.0 0.00 0.40 0.00 78 1013.0
20260906154407 84 268 1.0 4.0 0.00 0.40 0.00 79 1013.0
20260906154206 84 252 1.0 3.0 0.00 0.40 0.00 81 1013.1
20260906154008 84 252 1.0 3.0 0.00 0.40 0.00 82 1013.1
20260906153606 83 276 1.0 3.0 0.00 0.40 0.00 80 1013.3
20260906153408 83 298 1.0 2.0 0.00 0.40 0.00 81 1013.2
20260906153206 82 279 0.0 2.0 0.00 0.40 0.00 81 1013.2
20260906153008 82 221 0.0 2.0 0.00 0.40 0.00 84 1013.3
20260906152806 82 221 0.0 2.0 0.00 0.40 0.00 86 1013.2
20260906152606 82 316 0.0 1.0 0.00 0.40 0.00 85 1013.3
20260906152407 81 316 0.0 1.0 0.00 0.40 0.00 85 1013.2
20260906152206 81 316 0.0 1.0 0.00 0.40 0.00 88 1013.3
20260906152008 81 79 0.0 1.0 0.00 0.40 0.00 93 1013.3
20260906151806 81 79 0.0 1.0 0.00 0.40 0.00 93 1013.3
20260906151606 81 79 0.0 0.0 0.00 0.40 0.00 94 1013.3
20260906151409 81 79 0.0 0.0 0.00 0.40 0.00 94 1013.4
20260906151206 80 79 0.0 0.0 0.00 0.40 0.00 93 1013.4
20260906151008 80 79 0.0 1.0 0.00 0.40 0.00 91 1013.4
20260906150806 80 79 0.0 2.0 0.00 0.40 0.00 94 1013.4
20260906150608 80 79 0.0 2.0 0.00 0.40 0.00 94 1013.4
20260906150011 79 65 0.0 1.0 0.00 0.40 0.00 95 1013.4
20260906145806 79 79 0.0 1.0 0.00 0.40 0.00 95 1013.3
20260906145608 79 79 0.0 3.0 0.00 0.40 0.00 95 1013.3
20260906145407 79 77 0.0 3.0 0.00 0.40 0.00 93 1013.3
20260906145206 79 77 0.0 3.0 0.00 0.40 0.00 95 1013.2
20260906145008 78 77 0.0 3.0 0.00 0.40 0.00 95 1013.3
20260906144806 78 80 0.0 3.0 0.00 0.40 0.00 95 1013.2
20260906144606 78 76 0.0 2.0 0.00 0.40 0.00 98 1013.3
20260906144208 78 76 0.0 2.0 0.00 0.40 0.00 97 1013.4
20260906143806 78 76 0.0 1.0 0.00 0.40 0.00 98 1013.3
20260906143606 78 76 0.0 1.0 0.00 0.40 0.00 98 1013.4
20260906143407 77 76 0.0 1.0 0.00 0.40 0.00 98 1013.5
20260906143206 77 78 0.0 1.0 0.00 0.40 0.00 98 1013.5
20260906143008 77 78 0.0 3.0 0.00 0.40 0.00 98 1013.5
20260906142806 77 78 0.0 3.0 0.00 0.40 0.00 98 1013.5
20260906142606 77 78 0.0 3.0 0.00 0.40 0.00 98 1013.5
20260906142407 77 78 0.0 3.0 0.00 0.40 0.00 98 1013.6
20260906142206 77 66 0.0 3.0 0.00 0.40 0.00 99 1013.5
20260906142008 77 76 0.0 2.0 0.00 0.40 0.00 99 1013.6
20260906141806 77 76 0.0 2.0 0.00 0.40 0.00 99 1013.6
20260906141606 76 27 0.0 0.0 0.00 0.40 0.00 99 1013.6
20260906141407 76 40 0.0 0.0 0.00 0.40 0.00 99 1013.5
20260906141206 76 40 0.0 0.0 0.00 0.40 0.00 99 1013.6
20260906141008 76 40 0.0 0.0 0.00 0.40 0.00 99 1013.6
20260906140806 76 80 0.0 0.0 0.00 0.40 0.00 99 1013.6
20260906140407 75 80 0.0 0.0 0.00 0.40 0.00 99 1013.5
20260906140206 75 80 0.0 1.0 0.00 0.40 0.00 99 1013.5
20260906140011 75 80 0.0 1.0 0.00 0.40 0.00 99 1013.5
20260906135806 75 80 0.0 1.0 0.00 0.40 0.00 98 1013.6
20260906135606 75 63 0.0 1.0 0.00 0.40 0.00 99 1013.5
20260906135407 75 63 0.0 2.0 0.00 0.40 0.00 99 1013.5
20260906135206 75 74 0.0 2.0 0.00 0.40 0.00 99 1013.5
20260906134606 75 74 0.0 2.0 0.00 0.40 0.00 99 1013.5
20260906134407 75 66 0.0 1.0 0.00 0.40 0.00 99 1013.5
20260906134206 75 64 0.0 1.0 0.00 0.40 0.00 99 1013.5
20260906134010 75 67 0.0 1.0 0.00 0.40 0.00 99 1013.6
20260906133806 74 42 0.0 0.0 0.00 0.40 0.00 99 1013.6
20260906133607 74 42 0.0 0.0 0.00 0.40 0.00 99 1013.6
20260906133407 74 42 0.0 0.0 0.00 0.40 0.00 99 1013.6
20260906133206 74 325 0.0 0.0 0.00 0.40 0.00 99 1013.5
20260906132806 74 355 0.0 0.0 0.00 0.40 0.00 99 1013.6
20260906132606 74 355 0.0 0.0 0.00 0.40 0.00 99 1013.6
20260906132407 74 315 0.0 0.0 0.00 0.40 0.00 99 1013.6
20260906132008 74 315 0.0 0.0 0.00 0.40 0.00 99 1013.5
20260906131806 73 308 0.0 0.0 0.00 0.40 0.00 99 1013.4
20260906131606 73 308 0.0 0.0 0.00 0.40 0.00 99 1013.5
20260906131407 73 308 0.0 0.0 0.00 0.40 0.00 99 1013.5
20260906131008 73 294 0.0 0.0 0.00 0.40 0.00 99 1013.4
20260906130806 73 294 0.0 0.0 0.00 0.40 0.00 99 1013.4
20260906130606 73 294 0.0 0.0 0.00 0.40 0.00 99 1013.4
20260906130407 72 294 0.0 0.0 0.00 0.40 0.00 99 1013.4
20260906130205 72 294 0.0 0.0 0.00 0.40 0.00 99 1013.4
20260906130011 72 294 0.0 0.0 0.00 0.40 0.00 99 1013.3
20260906125806 72 294 0.0 0.0 0.00 0.40 0.00 99 1013.3
20260906125606 72 294 0.0 0.0 0.00 0.40 0.00 99 1013.3
20260906125407 72 294 0.0 0.0 0.00 0.40 0.00 99 1013.3
20260906125205 72 294 0.0 0.0 0.00 0.40 0.00 99 1013.2
20260906124805 72 294 0.0 0.0 0.00 0.40 0.00 99 1013.2
20260906124407 72 294 0.0 0.0 0.00 0.40 0.00 99 1013.2
20260906124008 72 294 0.0 0.0 0.00 0.40 0.00 99 1013.1
20260906123806 71 294 0.0 0.0 0.00 0.40 0.00 99 1013.2
20260906123606 71 294 0.0 0.0 0.00 0.40 0.00 99 1013.1
20260906123407 71 294 0.0 0.0 0.00 0.40 0.00 99 1013.1
20260906123008 71 294 0.0 0.0 0.00 0.40 0.00 99 1013.1
20260906122807 71 294 0.0 0.0 0.00 0.40 0.00 99 1013.0
20260906122606 71 294 0.0 0.0 0.00 0.40 0.00 99 1013.0
20260906122407 71 294 0.0 0.0 0.00 0.40 0.00 99 1013.0
20260906122206 70 294 0.0 0.0 0.00 0.40 0.00 99 1013.0
20260906122008 70 294 0.0 0.0 0.00 0.40 0.00 99 1013.0
20260906121805 70 294 0.0 0.0 0.00 0.40 0.00 99 1013.0
20260906121607 70 294 0.0 0.0 0.00 0.40 0.00 98 1012.9
20260906121407 70 294 0.0 0.0 0.00 0.40 0.00 98 1012.9
20260906121207 70 294 0.0 0.0 0.00 0.40 0.00 98 1012.8
20260906121008 70 294 0.0 0.0 0.00 0.40 0.00 98 1012.7
20260906120807 70 294 0.0 0.0 0.00 0.40 0.00 98 1012.8
20260906120407 70 294 0.0 0.0 0.00 0.40 0.00 98 1012.7
20260906120206 70 294 0.0 0.0 0.00 0.40 0.00 98 1012.7
20260906120010 70 294 0.0 0.0 0.00 0.40 0.00 98 1012.8
20260906115806 69 294 0.0 0.0 0.00 0.40 0.00 99 1012.7
20260906115606 69 294 0.0 0.0 0.00 0.40 0.00 99 1012.7
20260906114806 69 294 0.0 0.0 0.00 0.40 0.00 98 1012.7
20260906114606 69 294 0.0 0.0 0.00 0.40 0.00 98 1012.7
20260906114406 69 294 0.0 0.0 0.00 0.40 0.00 98 1012.7
20260906114206 69 294 0.0 0.0 0.00 0.40 0.00 98 1012.7
20260906114009 69 294 0.0 0.0 0.00 0.40 0.00 98 1012.7
20260906113806 69 294 0.0 0.0 0.00 0.40 0.00 98 1012.6
20260906113407 69 294 0.0 0.0 0.00 0.40 0.00 97 1012.6
20260906113206 69 294 0.0 0.0 0.00 0.40 0.00 97 1012.6
20260906113007 69 294 0.0 0.0 0.00 0.40 0.00 97 1012.6
20260906112806 69 294 0.0 0.0 0.00 0.40 0.00 97 1012.5
20260906112610 69 294 0.0 0.0 0.00 0.40 0.00 97 1012.6
20260906112407 69 294 0.0 0.0 0.00 0.40 0.00 97 1012.5
20260906112206 69 294 0.0 0.0 0.00 0.40 0.00 97 1012.4
20260906112006 69 294 0.0 0.0 0.00 0.40 0.00 97 1012.4
20260906111806 69 294 0.0 0.0 0.00 0.40 0.00 97 1012.4
20260906111608 69 294 0.0 0.0 0.00 0.40 0.00 97 1012.4
20260906111406 69 294 0.0 0.0 0.00 0.40 0.00 97 1012.4
20260906111206 69 294 0.0 0.0 0.00 0.40 0.00 97 1012.4
20260906111006 69 294 0.0 0.0 0.00 0.40 0.00 97 1012.3
20260906110807 68 294 0.0 0.0 0.00 0.40 0.00 97 1012.3
20260906110607 69 294 0.0 0.0 0.00 0.40 0.00 97 1012.3
20260906110206 69 294 0.0 0.0 0.00 0.40 0.00 97 1012.3
20260906110009 69 294 0.0 0.0 0.00 0.40 0.00 97 1012.2
20260906105806 69 294 0.0 0.0 0.00 0.40 0.00 97 1012.2
20260906105607 69 294 0.0 0.0 0.00 0.40 0.00 97 1012.4
20260906105404 69 294 0.0 0.0 0.00 0.40 0.00 97 1012.3
20260906104805 69 294 0.0 0.0 0.00 0.40 0.00 98 1012.2
20260906104607 69 294 0.0 0.0 0.00 0.40 0.00 98 1012.3
20260906104404 69 294 0.0 0.0 0.00 0.40 0.00 98 1012.2
20260906104205 69 294 0.0 0.0 0.00 0.40 0.00 97 1012.2
20260906103404 69 294 0.0 0.0 0.00 0.40 0.00 97 1012.3
20260906103207 69 294 0.0 0.0 0.00 0.40 0.00 97 1012.3
20260906103005 69 294 0.0 0.0 0.00 0.40 0.00 97 1012.2
20260906102806 69 294 0.0 0.0 0.00 0.40 0.00 97 1012.2
20260906102604 69 294 0.0 0.0 0.00 0.40 0.00 97 1012.2
20260906102206 69 294 0.0 0.0 0.00 0.40 0.00 97 1012.1
20260906102006 69 294 0.0 0.0 0.00 0.40 0.00 97 1012.2
20260906101809 69 294 0.0 0.0 0.00 0.40 0.00 97 1012.2
20260906101605 69 294 0.0 0.0 0.00 0.40 0.00 97 1012.1
20260906101405 69 294 0.0 0.0 0.00 0.40 0.00 97 1012.1
20260906101205 69 294 0.0 0.0 0.00 0.40 0.00 98 1012.1
20260906101006 69 294 0.0 0.0 0.00 0.40 0.00 98 1012.1
20260906100606 69 294 0.0 0.0 0.00 0.40 0.00 97 1012.1
20260906100405 69 294 0.0 0.0 0.00 0.40 0.00 97 1012.0
20260906100204 69 294 0.0 0.0 0.00 0.40 0.00 96 1012.1
20260906100007 69 294 0.0 0.0 0.00 0.40 0.00 96 1012.0
20260906095806 69 294 0.0 0.0 0.00 0.40 0.00 96 1012.0
20260906095408 69 294 0.0 0.0 0.00 0.40 0.00 96 1012.1
20260906095204 69 294 0.0 0.0 0.00 0.40 0.00 96 1012.0
20260906095004 69 294 0.0 0.0 0.00 0.40 0.00 96 1012.0
20260906094805 69 294 0.0 0.0 0.00 0.40 0.00 96 1012.1
20260906094605 69 294 0.0 0.0 0.00 0.40 0.00 96 1012.1
20260906094408 69 294 0.0 0.0 0.00 0.40 0.00 96 1012.1
20260906094205 69 294 0.0 0.0 0.00 0.40 0.00 96 1012.2
20260906094005 69 294 0.0 0.0 0.00 0.40 0.00 96 1012.3
20260906093805 69 294 0.0 0.0 0.00 0.40 0.00 96 1012.2
20260906093605 69 294 0.0 0.0 0.00 0.40 0.00 96 1012.2
20260906093408 69 294 0.0 0.0 0.00 0.40 0.00 96 1012.3
20260906093205 69 294 0.0 0.0 0.00 0.40 0.00 96 1012.3
20260906093004 69 294 0.0 0.0 0.00 0.40 0.00 96 1012.2
20260906092805 69 294 0.0 0.0 0.00 0.40 0.00 96 1012.3
20260906092605 69 294 0.0 0.0 0.00 0.40 0.00 96 1012.3
20260906092408 69 294 0.0 0.0 0.00 0.40 0.00 97 1012.3
20260906092205 69 294 0.0 0.0 0.00 0.40 0.00 96 1012.3
20260906092005 69 294 0.0 0.0 0.00 0.40 0.00 96 1012.4
20260906091606 69 294 0.0 0.0 0.00 0.40 0.00 96 1012.4
20260906091205 69 294 0.0 0.0 0.00 0.40 0.00 97 1012.3
20260906091010 69 294 0.0 0.0 0.00 0.40 0.00 97 1012.3
20260906090805 69 294 0.0 0.0 0.00 0.40 0.00 97 1012.3
20260906090606 69 294 0.0 0.0 0.00 0.40 0.00 97 1012.4
20260906090406 69 294 0.0 0.0 0.00 0.40 0.00 97 1012.4
20260906090010 70 294 0.0 0.0 0.00 0.40 0.00 97 1012.4
20260906085805 70 294 0.0 0.0 0.00 0.40 0.00 97 1012.3
20260906085605 70 294 0.0 0.0 0.00 0.40 0.00 97 1012.3
20260906085406 70 294 0.0 0.0 0.00 0.40 0.00 97 1012.3
20260906085205 70 294 0.0 0.0 0.00 0.40 0.00 97 1012.3
20260906085007 70 294 0.0 0.0 0.00 0.40 0.00 97 1012.4
20260906084805 70 294 0.0 0.0 0.00 0.40 0.00 97 1012.3
20260906084605 70 294 0.0 0.0 0.00 0.40 0.00 96 1012.3
20260906084406 70 294 0.0 0.0 0.00 0.40 0.00 96 1012.3
20260906084204 70 294 0.0 0.0 0.00 0.40 0.00 96 1012.2
20260906084007 70 294 0.0 0.0 0.00 0.40 0.00 97 1012.3
20260906083805 70 294 0.0 0.0 0.00 0.40 0.00 97 1012.2
20260906083406 70 294 0.0 0.0 0.00 0.40 0.00 97 1012.2
20260906083006 70 294 0.0 0.0 0.00 0.40 0.00 97 1012.2
20260906082805 70 294 0.0 0.0 0.00 0.40 0.00 97 1012.2
20260906082605 70 294 0.0 0.0 0.00 0.40 0.00 97 1012.1
20260906082205 70 294 0.0 0.0 0.00 0.40 0.00 97 1012.1
20260906082007 70 294 0.0 0.0 0.00 0.40 0.00 97 1012.1
20260906081805 70 294 0.0 0.0 0.00 0.40 0.00 97 1012.1
20260906081605 70 294 0.0 0.0 0.00 0.40 0.00 97 1012.1
20260906081408 70 294 0.0 0.0 0.00 0.40 0.00 97 1012.1
20260906081204 70 294 0.0 0.0 0.00 0.40 0.00 97 1012.0
20260906080805 70 294 0.0 0.0 0.00 0.40 0.00 97 1012.0
20260906080605 70 294 0.0 0.0 0.00 0.40 0.00 97 1012.0
20260906080406 70 294 0.0 0.0 0.00 0.40 0.00 97 1011.9
20260906080205 70 294 0.0 0.0 0.00 0.40 0.00 97 1011.9
20260906075805 70 294 0.0 0.0 0.00 0.40 0.00 97 1011.8
20260906075605 70 294 0.0 0.0 0.00 0.40 0.00 97 1011.7
20260906075408 70 294 0.0 0.0 0.00 0.40 0.00 97 1011.7
20260906075205 70 294 0.0 0.0 0.00 0.40 0.00 97 1011.8
20260906075007 70 294 0.0 0.0 0.00 0.40 0.00 97 1011.8
20260906074804 70 294 0.0 0.0 0.00 0.40 0.00 97 1011.8
20260906074605 70 294 0.0 0.0 0.00 0.40 0.00 97 1011.8
20260906074406 70 294 0.0 0.0 0.00 0.40 0.00 97 1011.8
20260906074205 70 294 0.0 0.0 0.00 0.40 0.00 97 1011.9
20260906074008 70 294 0.0 0.0 0.00 0.40 0.00 97 1011.8
20260906073805 70 294 0.0 0.0 0.00 0.40 0.00 97 1011.8
20260906073605 70 294 0.0 0.0 0.00 0.40 0.00 97 1011.8
20260906073205 70 294 0.0 0.0 0.00 0.40 0.00 97 1011.8
20260906073005 70 294 0.0 0.0 0.00 0.40 0.00 97 1011.9
20260906072805 70 294 0.0 0.0 0.00 0.40 0.00 97 1011.8
20260906072605 70 294 0.0 0.0 0.00 0.40 0.00 97 1011.9
20260906072407 70 294 0.0 0.0 0.00 0.40 0.00 97 1011.9
20260906072205 70 294 0.0 0.0 0.00 0.40 0.00 97 1011.8
20260906072007 70 294 0.0 0.0 0.00 0.40 0.00 97 1011.7
20260906071806 70 294 0.0 0.0 0.00 0.40 0.00 97 1011.8
20260906071605 70 294 0.0 0.0 0.00 0.40 0.00 97 1011.9
20260906071406 70 294 0.0 0.0 0.00 0.40 0.00 97 1011.9
20260906071205 70 294 0.0 0.0 0.00 0.40 0.00 97 1012.0
20260906071007 70 294 0.0 0.0 0.00 0.40 0.00 97 1012.0
20260906070605 70 294 0.0 0.0 0.00 0.40 0.00 97 1012.0
20260906070407 70 294 0.0 0.0 0.00 0.40 0.00 97 1012.0
20260906070206 70 294 0.0 0.0 0.00 0.40 0.00 97 1012.0
20260906070010 70 294 0.0 0.0 0.00 0.40 0.00 97 1012.0
20260906065805 70 294 0.0 0.0 0.00 0.40 0.00 97 1011.9
20260906065605 70 294 0.0 0.0 0.00 0.40 0.00 97 1011.9
20260906065406 70 294 0.0 0.0 0.00 0.40 0.00 97 1011.9
20260906065205 70 294 0.0 0.0 0.00 0.40 0.00 97 1011.9
20260906065007 70 294 0.0 0.0 0.00 0.40 0.00 97 1012.0
20260906064805 70 294 0.0 0.0 0.00 0.40 0.00 97 1012.0
20260906064406 70 294 0.0 0.0 0.00 0.40 0.00 96 1012.0
20260906064205 70 294 0.0 0.0 0.00 0.40 0.00 97 1012.0
20260906063805 70 294 0.0 0.0 0.00 0.40 0.00 97 1012.1
20260906063605 70 294 0.0 0.0 0.00 0.40 0.00 97 1012.1
20260906063406 70 294 0.0 0.0 0.00 0.40 0.00 97 1012.1
20260906063205 70 294 0.0 0.0 0.00 0.40 0.00 96 1012.1
20260906063007 70 294 0.0 0.0 0.00 0.40 0.00 96 1012.2
20260906062805 70 294 0.0 0.0 0.00 0.40 0.00 96 1012.1
20260906062605 70 294 0.0 0.0 0.00 0.40 0.00 96 1012.2
20260906062205 70 294 0.0 0.0 0.00 0.40 0.00 97 1012.1
20260906062007 70 294 0.0 0.0 0.00 0.40 0.00 97 1012.2
20260906061805 70 294 0.0 0.0 0.00 0.40 0.00 96 1012.2
20260906061605 70 294 0.0 0.0 0.00 0.40 0.00 96 1012.2
20260906061407 70 294 0.0 0.0 0.00 0.40 0.00 97 1012.2
20260906061205 70 294 0.0 0.0 0.00 0.40 0.00 97 1012.2
20260906061007 71 294 0.0 0.0 0.00 0.40 0.00 97 1012.3
20260906060805 71 294 0.0 0.0 0.00 0.40 0.00 97 1012.3
20260906060605 71 294 0.0 0.0 0.00 0.40 0.00 97 1012.4
20260906060205 71 294 0.0 0.0 0.00 0.40 0.00 97 1012.5
20260906060009 71 294 0.0 0.0 0.00 0.40 0.00 97 1012.4
20260906055007 71 294 0.0 0.0 0.00 0.40 0.00 97 1012.7
20260906054805 71 294 0.0 0.0 0.00 0.40 0.00 97 1012.8
20260906054605 71 294 0.0 0.0 0.00 0.40 0.00 97 1012.8
20260906054406 71 294 0.0 0.0 0.00 0.40 0.00 97 1013.0
20260906054205 71 294 0.0 0.0 0.00 0.40 0.00 97 1013.0
20260906053805 71 294 0.0 0.0 0.00 0.40 0.00 97 1013.0
20260906053605 71 294 0.0 0.0 0.00 0.40 0.00 97 1013.1
20260906053406 71 294 0.0 0.0 0.00 0.40 0.00 97 1013.0
20260906053205 71 294 0.0 0.0 0.00 0.40 0.00 97 1013.1
20260906052805 71 294 0.0 0.0 0.00 0.40 0.00 97 1013.0
20260906052605 71 294 0.0 0.0 0.00 0.40 0.00 97 1013.0
20260906052205 71 294 0.0 0.0 0.00 0.40 0.00 97 1013.2
20260906052007 71 294 0.0 0.0 0.00 0.40 0.00 97 1013.2
20260906051805 71 294 0.0 0.0 0.00 0.40 0.00 96 1013.2
20260906051605 71 294 0.0 0.0 0.00 0.40 0.00 96 1013.3
20260906051007 71 294 0.0 0.0 0.00 0.40 0.00 96 1013.3
20260906050804 71 294 0.0 0.0 0.00 0.40 0.00 96 1013.3
20260906050604 71 294 0.0 0.0 0.00 0.40 0.00 96 1013.2
20260906050406 71 294 0.0 0.0 0.00 0.40 0.00 97 1013.2
20260906050205 71 294 0.0 0.0 0.00 0.40 0.00 97 1013.2
20260906050009 71 294 0.0 0.0 0.00 0.40 0.00 97 1013.2
20260906045805 71 294 0.0 0.0 0.00 0.40 0.00 97 1013.3
20260906045605 71 294 0.0 0.0 0.00 0.40 0.00 97 1013.3
20260906045405 71 294 0.0 0.0 0.00 0.40 0.00 97 1013.4
20260906045206 71 294 0.0 0.0 0.00 0.40 0.00 97 1013.3
20260906045007 71 294 0.0 0.0 0.00 0.40 0.00 97 1013.4
20260906044805 71 294 0.0 0.0 0.00 0.40 0.00 97 1013.3
20260906044405 71 294 0.0 0.0 0.00 0.40 0.00 97 1013.3
20260906044205 71 294 0.0 0.0 0.00 0.40 0.00 97 1013.4
20260906044008 71 294 0.0 0.0 0.00 0.40 0.00 97 1013.3
20260906043806 71 294 0.0 0.0 0.00 0.40 0.00 97 1013.2
20260906043605 71 294 0.0 0.0 0.00 0.40 0.00 97 1013.2
20260906043404 71 294 0.0 0.0 0.00 0.40 0.00 97 1013.2
20260906043205 71 294 0.0 0.0 0.00 0.40 0.00 97 1013.2
20260906043007 71 294 0.0 0.0 0.00 0.40 0.00 97 1013.2
20260906042205 71 294 0.0 0.0 0.00 0.40 0.00 96 1013.1
20260906042006 71 294 0.0 0.0 0.00 0.40 0.00 96 1013.2
20260906041805 71 294 0.0 0.0 0.00 0.40 0.00 96 1013.2
20260906041607 71 294 0.0 0.0 0.00 0.40 0.00 96 1013.2
20260906041404 71 294 0.0 0.0 0.00 0.40 0.00 96 1013.2
20260906041205 71 294 0.0 0.0 0.00 0.40 0.00 97 1013.3
20260906040805 71 294 0.0 0.0 0.00 0.40 0.00 97 1013.2
20260906040607 71 294 0.0 0.0 0.00 0.40 0.00 97 1013.1
20260906040405 71 294 0.0 0.0 0.00 0.40 0.00 97 1013.2
20260906040207 71 294 0.0 0.0 0.00 0.40 0.00 97 1013.2
20260906040011 71 294 0.0 0.0 0.00 0.40 0.00 97 1013.3
20260906035808 71 294 0.0 0.0 0.00 0.40 0.40 97 1013.4
20260906035607 71 294 0.0 0.0 0.00 0.40 0.40 96 1013.4
20260906035409 71 294 0.0 0.0 0.00 0.40 0.40 96 1013.4
20260906035207 71 294 0.0 0.0 0.00 0.40 0.40 96 1013.4
20260906034807 71 294 0.0 0.0 0.00 0.40 0.40 96 1013.6
20260906034408 71 294 0.0 0.0 0.00 0.40 0.40 96 1013.7
20260906034207 71 294 0.0 0.0 0.00 0.40 0.40 96 1013.7
20260906034007 71 294 0.0 0.0 0.00 0.40 0.40 96 1013.8
20260906033809 71 294 0.0 0.0 0.00 0.40 0.40 96 1013.7
20260906033607 71 294 0.0 0.0 0.00 0.40 0.40 96 1013.7
20260906033207 71 294 0.0 0.0 0.00 0.40 0.40 96 1013.7
20260906033007 72 294 0.0 0.0 0.00 0.40 0.40 96 1013.6
20260906032810 72 294 0.0 0.0 0.00 0.40 0.40 96 1013.6
20260906032409 72 294 0.0 0.0 0.00 0.40 0.40 96 1013.6
20260906032207 72 294 0.0 0.0 0.00 0.40 0.40 96 1013.5
20260906032007 72 294 0.0 0.0 0.00 0.40 0.40 96 1013.4
20260906031810 72 294 0.0 0.0 0.00 0.40 0.40 96 1013.4
20260906031607 72 294 0.0 0.0 0.00 0.40 0.40 96 1013.3
20260906031411 72 294 0.0 0.0 0.00 0.40 0.40 97 1013.3
20260906030809 72 294 0.0 0.0 0.00 0.40 0.40 96 1013.1
20260906030409 72 294 0.0 0.0 0.00 0.40 0.40 96 1013.1
20260906030207 72 294 0.0 0.0 0.00 0.40 0.40 96 1013.1
20260906030009 72 294 0.0 0.0 0.00 0.40 0.40 96 1013.1
20260906025809 72 294 0.0 0.0 0.00 0.40 0.40 96 1013.1
20260906025607 72 294 0.0 0.0 0.00 0.40 0.40 97 1013.2
20260906025409 72 294 0.0 0.0 0.00 0.40 0.40 97 1013.2
20260906025007 72 294 0.0 0.0 0.00 0.40 0.40 97 1013.2
20260906024809 72 294 0.0 0.0 0.00 0.40 0.40 97 1013.2
20260906024607 72 294 0.0 0.0 0.00 0.40 0.40 97 1013.2
20260906024410 72 294 0.0 0.0 0.00 0.40 0.40 97 1013.3
20260906024207 72 294 0.0 0.0 0.00 0.40 0.40 97 1013.3
20260906024008 72 294 0.0 0.0 0.00 0.40 0.40 97 1013.4
20260906023808 72 294 0.0 0.0 0.00 0.40 0.40 97 1013.4
20260906023410 72 294 0.0 0.0 0.00 0.40 0.40 96 1013.4
20260906023208 72 294 0.0 0.0 0.00 0.40 0.40 96 1013.4
20260906023008 72 294 0.0 0.0 0.00 0.40 0.40 96 1013.5
20260906022607 72 294 0.0 0.0 0.00 0.40 0.40 96 1013.5
20260906022408 72 294 0.0 0.0 0.00 0.40 0.40 96 1013.5
20260906022007 72 294 0.0 0.0 0.00 0.40 0.40 96 1013.4
20260906021808 72 294 0.0 0.0 0.00 0.40 0.40 96 1013.4
20260906021607 72 294 0.0 0.0 0.00 0.40 0.40 96 1013.5
20260906021409 72 294 0.0 0.0 0.00 0.40 0.40 96 1013.5
20260906021209 72 294 0.0 0.0 0.00 0.40 0.40 96 1013.4
20260906021008 72 294 0.0 0.0 0.00 0.40 0.40 95 1013.3
20260906020809 72 294 0.0 0.0 0.00 0.40 0.40 95 1013.3
20260906020607 72 294 0.0 0.0 0.00 0.40 0.40 95 1013.2
20260906020409 72 294 0.0 0.0 0.00 0.40 0.40 95 1013.0
20260906020207 72 294 0.0 0.0 0.00 0.40 0.40 95 1012.9
20260906020009 72 294 0.0 0.0 0.00 0.40 0.40 95 1013.0
20260906015810 72 294 0.0 0.0 0.00 0.40 0.40 95 1013.1
20260906015607 72 294 0.0 0.0 0.00 0.40 0.40 95 1013.1
20260906015409 72 294 0.0 0.0 0.00 0.40 0.40 95 1013.0
20260906015007 73 294 0.0 0.0 0.00 0.40 0.40 95 1013.0
20260906014809 73 294 0.0 0.0 0.00 0.40 0.40 96 1013.2
20260906014607 73 294 0.0 0.0 0.00 0.40 0.40 96 1013.1
20260906014409 73 294 0.0 0.0 0.00 0.40 0.40 96 1013.1
20260906014209 73 294 0.0 0.0 0.00 0.40 0.40 96 1013.1
20260906014007 73 294 0.0 0.0 0.00 0.40 0.40 96 1013.0
20260906013809 73 294 0.0 0.0 0.00 0.40 0.40 96 1013.0
20260906013609 73 294 0.0 0.0 0.00 0.40 0.40 96 1012.8
20260906013409 73 294 0.0 0.0 0.00 0.40 0.40 96 1012.8
20260906013207 73 294 0.0 0.0 0.00 0.40 0.40 95 1012.8
20260906012808 73 294 0.0 0.0 0.00 0.40 0.40 95 1012.8
20260906012607 73 294 0.0 0.0 0.00 0.40 0.40 95 1012.7
20260906012207 73 294 0.0 0.0 0.00 0.40 0.40 95 1012.7
20260906012007 73 294 0.0 0.0 0.00 0.40 0.40 95 1012.8
20260906011809 73 294 0.0 0.0 0.00 0.40 0.40 95 1012.8
20260906011607 73 294 0.0 0.0 0.00 0.40 0.40 95 1012.7
20260906011409 73 294 0.0 0.0 0.00 0.40 0.40 95 1012.7
20260906011207 73 294 0.0 0.0 0.00 0.40 0.40 95 1012.6
20260906011007 73 294 0.0 0.0 0.00 0.40 0.40 95 1012.5
20260906010607 73 294 0.0 0.0 0.00 0.40 0.40 95 1012.4
20260906010207 73 294 0.0 0.0 0.00 0.40 0.40 95 1012.5
20260906010009 73 294 0.0 0.0 0.00 0.40 0.40 95 1012.6
20260906005409 73 294 0.0 0.0 0.00 0.40 0.40 95 1012.5
20260906005207 73 294 0.0 0.0 0.00 0.40 0.40 95 1012.4
20260906005009 73 294 0.0 0.0 0.00 0.40 0.40 95 1012.4
20260906004809 73 294 0.0 0.0 0.00 0.40 0.40 95 1012.3
20260906004609 73 294 0.0 0.0 0.00 0.40 0.40 95 1012.3
20260906004207 74 294 0.0 0.0 0.00 0.40 0.40 95 1012.3
20260906004007 74 294 0.0 0.0 0.00 0.40 0.40 95 1012.4
20260906003809 74 294 0.0 0.0 0.00 0.40 0.40 95 1012.3
20260906003607 74 294 0.0 0.0 0.00 0.40 0.40 95 1012.3
20260906003409 74 294 0.0 0.0 0.00 0.40 0.40 95 1012.3
20260906003207 74 294 0.0 0.0 0.00 0.40 0.40 95 1012.4
20260906002808 74 294 0.0 0.0 0.00 0.40 0.40 95 1012.3
20260906002607 74 294 0.0 0.0 0.00 0.40 0.40 95 1012.3
20260906002411 74 294 0.0 0.0 0.00 0.40 0.40 95 1012.4
20260906002207 74 294 0.0 1.0 0.00 0.40 0.40 95 1012.3
20260906002007 74 294 0.0 1.0 0.00 0.40 0.40 95 1012.3
20260906001809 74 294 0.0 1.0 0.00 0.40 0.40 95 1012.4
20260906001607 74 294 0.0 1.0 0.00 0.40 0.40 95 1012.3
20260906001409 74 294 0.0 1.0 0.00 0.40 0.40 95 1012.4
20260906001007 74 294 0.0 1.0 0.00 0.40 0.40 95 1012.4
20260906000809 74 294 0.0 1.0 0.00 0.40 0.40 95 1012.3
20260906000411 74 294 0.0 0.0 0.00 0.40 0.40 94 1012.3
20260906000009 74 294 0.0 0.0 0.00 0.40 0.40 95 1012.3
20260905235809 74 294 0.0 0.0 0.00 0.40 0.40 95 1012.3
20260905235608 74 294 0.0 0.0 0.00 0.40 0.40 95 1012.3
20260905235207 74 294 0.0 0.0 0.00 0.40 0.40 95 1012.1
20260905235007 75 294 0.0 0.0 0.00 0.40 0.40 95 1012.1
20260905234808 75 294 0.0 0.0 0.00 0.40 0.40 95 1012.0
20260905234607 75 294 0.0 0.0 0.00 0.40 0.40 95 1011.9
20260905234207 75 294 0.0 0.0 0.00 0.40 0.40 95 1011.9
20260905234007 75 294 0.0 0.0 0.00 0.40 0.40 95 1012.0
20260905233807 75 294 0.0 0.0 0.00 0.40 0.40 95 1012.0
20260905233607 75 294 0.0 0.0 0.00 0.40 0.40 95 1012.0
20260905233409 75 294 0.0 0.0 0.00 0.40 0.40 95 1011.9
20260905233009 75 294 0.0 0.0 0.00 0.40 0.40 95 1011.9
20260905232806 75 294 0.0 0.0 0.00 0.40 0.40 95 1011.9
20260905232606 75 294 0.0 0.0 0.00 0.40 0.40 95 1011.9
20260905232406 75 294 0.0 0.0 0.00 0.40 0.40 95 1011.8
20260905232206 75 294 0.0 0.0 0.00 0.40 0.40 95 1011.9
20260905231806 75 294 0.0 0.0 0.00 0.40 0.40 95 1011.9
20260905231607 75 294 0.0 1.0 0.00 0.40 0.40 95 1011.8
20260905231406 75 294 0.0 2.0 0.00 0.40 0.40 95 1011.8
20260905231006 75 294 0.0 2.0 0.00 0.40 0.40 95 1011.9
20260905230806 75 294 0.0 2.0 0.00 0.40 0.40 95 1011.9
20260905230609 75 294 0.0 1.0 0.00 0.40 0.40 95 1011.9
20260905230407 75 294 0.0 0.0 0.00 0.40 0.40 95 1012.0
20260905230207 75 294 0.0 0.0 0.00 0.40 0.40 95 1012.0
20260905230011 75 294 0.0 0.0 0.00 0.40 0.40 95 1012.0
20260905225606 75 294 0.0 0.0 0.00 0.40 0.40 95 1011.9
20260905225408 75 294 0.0 0.0 0.00 0.40 0.40 95 1011.9
20260905225206 75 294 0.0 0.0 0.00 0.40 0.40 95 1011.9
20260905225007 75 294 0.0 0.0 0.00 0.40 0.40 95 1011.9
20260905224807 75 294 0.0 0.0 0.00 0.40 0.40 95 1011.9
20260905224607 75 294 0.0 0.0 0.00 0.40 0.40 95 1011.9
20260905224408 75 294 0.0 0.0 0.00 0.40 0.40 96 1012.0
20260905224207 75 294 0.0 0.0 0.00 0.40 0.40 95 1012.1
20260905224007 75 294 0.0 0.0 0.00 0.40 0.40 96 1012.0
20260905223607 75 294 0.0 0.0 0.00 0.40 0.40 96 1012.1
20260905223408 75 294 0.0 0.0 0.00 0.40 0.40 95 1012.0
20260905223007 75 294 0.0 0.0 0.00 0.40 0.40 96 1012.0
20260905222807 75 294 0.0 0.0 0.00 0.40 0.40 96 1012.1
20260905222607 75 294 0.0 0.0 0.00 0.40 0.40 96 1012.2
20260905222407 75 294 0.0 0.0 0.00 0.40 0.40 96 1012.1
20260905222208 75 294 0.0 0.0 0.00 0.40 0.40 96 1012.1
20260905222008 74 294 0.0 0.0 0.00 0.40 0.40 95 1011.9
20260905221808 74 294 0.0 0.0 0.00 0.40 0.40 96 1011.9
20260905221608 74 294 0.0 0.0 0.00 0.40 0.40 96 1011.9
20260905221409 74 294 0.0 0.0 0.00 0.40 0.40 96 1011.9
20260905220806 74 294 0.0 0.0 0.00 0.40 0.40 96 1011.9
20260905220608 74 294 0.0 0.0 0.00 0.40 0.40 96 1012.0
20260905220407 74 294 0.0 0.0 0.00 0.40 0.40 96 1012.0
20260905220209 74 294 0.0 0.0 0.00 0.40 0.40 95 1012.0
20260905220009 74 294 0.0 0.0 0.00 0.40 0.40 95 1011.9
20260905215807 74 294 0.0 0.0 0.00 0.40 0.40 95 1012.0
20260905215607 74 294 0.0 0.0 0.00 0.40 0.40 95 1012.0
20260905215407 74 294 0.0 0.0 0.00 0.40 0.40 95 1012.1
20260905215207 74 294 0.0 0.0 0.00 0.40 0.40 95 1012.0
20260905215007 74 294 0.0 0.0 0.00 0.40 0.40 95 1012.0
20260905214609 74 294 0.0 0.0 0.00 0.40 0.40 95 1011.9
20260905214407 74 294 0.0 0.0 0.00 0.40 0.40 95 1011.8
20260905214207 74 294 0.0 0.0 0.00 0.40 0.40 96 1011.8
20260905214007 74 294 0.0 0.0 0.00 0.40 0.40 96 1011.8
20260905213808 74 294 0.0 0.0 0.00 0.40 0.40 96 1011.8
20260905213207 74 294 0.0 0.0 0.00 0.40 0.40 96 1011.9
20260905213007 74 294 0.0 0.0 0.00 0.40 0.40 96 1012.0
20260905212810 74 294 0.0 0.0 0.00 0.40 0.40 97 1012.1
20260905212607 74 294 0.0 0.0 0.00 0.40 0.40 97 1012.2